| time (UTC) | temp F | wind direction | speed knots | gust knots | rain 1hr in | rain 24hr in | rain mn in | humidity % | barometer mb |
| 20260510143446 | 0 | 227 | 0.9 | 3.5 | 0.00 | 0.00 | 0.00 | 100 | |
| 20260510141826 | 0 | 270 | 0.9 | 2.6 | 0.00 | 0.00 | 0.00 | 100 | |
| 20260510140133 | 0 | 270 | 0.0 | 1.7 | 0.00 | 0.00 | 0.00 | 100 | |
| 20260510134246 | 0 | 249 | 0.9 | 3.5 | 0.00 | 0.00 | 0.00 | 100 | |
| 20260510132438 | 0 | 258 | 2.6 | 5.2 | 0.00 | 0.00 | 0.00 | 100 | |
| 20260510130813 | 0 | 253 | 2.6 | 4.3 | 0.00 | 0.00 | 0.00 | 100 | |
| 20260510124912 | 0 | 238 | 0.9 | 3.5 | 0.00 | 0.00 | 0.00 | 100 | |
| 20260510123237 | 0 | 235 | 0.9 | 3.5 | 0.00 | 0.00 | 0.00 | 100 | |
| 20260510121633 | 0 | 240 | 1.7 | 4.3 | 0.00 | 0.00 | 0.00 | 100 | |
| 20260510115958 | 0 | 245 | 0.9 | 3.5 | 0.00 | 0.00 | 0.00 | 100 | |
| 20260510114226 | 0 | 236 | 1.7 | 3.5 | 0.00 | 0.00 | 0.00 | 100 | |
| 20260510112433 | 0 | 246 | 0.9 | 2.6 | 0.00 | 0.00 | 0.00 | 100 | |
| 20260510110833 | 0 | 251 | 0.9 | 2.6 | 0.00 | 0.00 | 0.00 | 100 | |
| 20260510105013 | 0 | 240 | 1.7 | 3.5 | 0.00 | 0.00 | 0.00 | 100 | |
| 20260510103258 | 0 | 243 | 1.7 | 3.5 | 0.00 | 0.00 | 0.00 | 100 | |
| 20260510101658 | 0 | 240 | 1.7 | 3.5 | 0.00 | 0.00 | 0.00 | 100 | |
| 20260510100017 | 0 | 240 | 2.6 | 3.5 | 0.00 | 0.00 | 0.00 | 100 | |
| 20260510094413 | 0 | 239 | 1.7 | 3.5 | 0.00 | 0.00 | 0.00 | 100 | |
| 20260510092538 | 0 | 238 | 2.6 | 3.5 | 0.00 | 0.00 | 0.00 | 100 | |
| 20260510090846 | 0 | 245 | 1.7 | 3.5 | 0.00 | 0.00 | 0.00 | 100 | |
| 20260510084903 | 0 | 243 | 1.7 | 4.3 | 0.00 | 0.00 | 0.00 | 100 | |
| 20260510083053 | 0 | 244 | 0.9 | 2.6 | 0.00 | 0.00 | 0.00 | 100 | |
| 20260510081316 | 0 | 244 | 0.9 | 3.5 | 0.00 | 0.00 | 0.00 | 100 | |
| 20260510075426 | 0 | 237 | 1.7 | 3.5 | 0.00 | 0.00 | 0.00 | 100 | |
| 20260510073653 | 0 | 239 | 1.7 | 3.5 | 0.00 | 0.00 | 0.00 | 100 | |
| 20260510071933 | 0 | 239 | 1.7 | 3.5 | 0.00 | 0.00 | 0.00 | 100 | |
| 20260510070158 | 0 | 239 | 1.7 | 3.5 | 0.00 | 0.00 | 0.00 | 100 | |
| 20260510064433 | 0 | 237 | 1.7 | 5.2 | 0.00 | 0.00 | 0.00 | 100 | |
| 20260510062613 | 0 | 239 | 0.9 | 2.6 | 0.00 | 0.00 | 0.00 | 100 | |
| 20260510060846 | 0 | 242 | 0.9 | 2.6 | 0.00 | 0.00 | 0.00 | 100 | |
| 20260510055058 | 0 | 245 | 0.9 | 3.5 | 0.00 | 0.00 | 0.00 | 100 | |
| 20260510053106 | 0 | 244 | 0.9 | 2.6 | 0.00 | 0.00 | 0.00 | 100 | |
| 20260510051228 | 0 | 243 | 0.9 | 3.5 | 0.00 | 0.00 | 0.00 | 100 | |
| 20260510045528 | 0 | 242 | 0.9 | 2.6 | 0.00 | 0.00 | 0.00 | 100 | |
| 20260510043928 | 0 | 270 | 0.9 | 2.6 | 0.00 | 0.00 | 0.00 | 100 | |
| 20260510042058 | 0 | 270 | 0.9 | 2.6 | 0.00 | 0.00 | 0.00 | 100 | |
| 20260510040303 | 0 | 252 | 0.9 | 2.6 | 0.00 | 0.00 | 0.00 | 100 | |
| 20260510034313 | 0 | 303 | 0.9 | 3.5 | 0.00 | 0.00 | 0.00 | 100 | |
| 20260510032703 | 0 | 302 | 0.0 | 2.6 | 0.00 | 0.00 | 0.00 | 100 | |
| 20260510031043 | 0 | 290 | 0.9 | 2.6 | 0.00 | 0.00 | 0.00 | 100 | |
| 20260510025058 | 0 | 270 | 0.9 | 3.5 | 0.00 | 0.00 | 0.00 | 100 | |
| 20260510023313 | 0 | 315 | 0.9 | 6.1 | 0.00 | 0.00 | 0.00 | 100 | |
| 20260510021436 | 0 | 251 | 0.9 | 2.6 | 0.00 | 0.00 | 0.00 | 100 | |
| 20260510021403 | 0 | 251 | 0.9 | 2.6 | 0.00 | 0.00 | 0.00 | 100 | |
| 20260510015748 | 0 | 237 | 0.9 | 3.5 | 0.00 | 0.00 | 0.00 | 100 | |
| 20260510013953 | 0 | 308 | 0.0 | 2.6 | 0.00 | 0.00 | 0.00 | 100 | |
| 20260510012316 | 0 | 270 | 0.9 | 2.6 | 0.00 | 0.00 | 0.00 | 100 | |
| 20260510010613 | 0 | 251 | 0.9 | 4.3 | 0.00 | 0.00 | 0.00 | 100 | |
| 20260510004923 | 0 | 240 | 0.9 | 3.5 | 0.00 | 0.00 | 0.00 | 100 | |
| 20260510002958 | 0 | 243 | 0.9 | 3.5 | 0.00 | 0.00 | 0.00 | 100 | |
| 20260510001430 | 0 | 243 | 0.9 | 3.5 | 0.00 | 0.00 | 0.00 | 100 | |
| 20260510001343 | 0 | 243 | 0.9 | 3.5 | 0.00 | 0.00 | 0.00 | 100 | |
| 20260509235738 | 0 | 240 | 0.9 | 4.3 | 0.00 | 0.00 | 0.00 | 100 | |
| 20260509234033 | 0 | 241 | 1.7 | 3.5 | 0.00 | 0.00 | 0.00 | 100 | |
| 20260509232423 | 0 | 241 | 0.9 | 3.5 | 0.00 | 0.00 | 0.00 | 100 | |
| 20260509230513 | 0 | 233 | 1.7 | 4.3 | 0.00 | 0.00 | 0.00 | 100 | |
| 20260509224558 | 0 | 234 | 1.7 | 5.2 | 0.00 | 0.00 | 0.00 | 100 | |
| 20260509222738 | 0 | 233 | 2.6 | 4.3 | 0.00 | 0.00 | 0.00 | 100 | |
| 20260509221053 | 0 | 236 | 1.7 | 7.0 | 0.00 | 0.00 | 0.00 | 100 | |
| 20260509215103 | 0 | 232 | 0.9 | 3.5 | 0.00 | 0.00 | 0.00 | 100 | |
| 20260509213143 | 0 | 228 | 1.7 | 5.2 | 0.00 | 0.00 | 0.00 | 100 | |
| 20260509211253 | 0 | 238 | 1.7 | 3.5 | 0.00 | 0.00 | 0.00 | 100 | |
| 20260509205541 | 0 | 236 | 0.9 | 3.5 | 0.00 | 0.00 | 0.00 | 100 | |
| 20260509203637 | 0 | 233 | 2.6 | 6.1 | 0.00 | 0.00 | 0.00 | 100 | |
| 20260509201903 | 0 | 232 | 2.6 | 9.6 | 0.00 | 0.00 | 0.00 | 100 | |
| 20260509195932 | 0 | 234 | 0.9 | 5.2 | 0.00 | 0.00 | 0.00 | 100 | |
| 20260509194355 | 0 | 233 | 0.9 | 5.2 | 0.00 | 0.00 | 0.00 | 100 | |
| 20260509194316 | 0 | 233 | 0.9 | 5.2 | 0.00 | 0.00 | 0.00 | 100 | |
| 20260509192428 | 0 | 233 | 1.7 | 3.5 | 0.00 | 0.00 | 0.00 | 100 | |
| 20260509190833 | 0 | 235 | 1.7 | 3.5 | 0.00 | 0.00 | 0.00 | 100 | |
| 20260509185038 | 0 | 241 | 0.9 | 3.5 | 0.00 | 0.00 | 0.00 | 100 | |
| 20260509183223 | 0 | 239 | 0.9 | 3.5 | 0.00 | 0.00 | 0.00 | 100 | |
| 20260509181354 | 0 | 251 | 0.9 | 2.6 | 0.00 | 0.00 | 0.00 | 100 | |
| 20260509175643 | 0 | 225 | 1.7 | 4.3 | 0.00 | 0.00 | 0.00 | 100 | |
| 20260509173718 | 0 | 243 | 0.9 | 3.5 | 0.00 | 0.00 | 0.00 | 100 | |
| 20260509172018 | 0 | 233 | 1.7 | 4.3 | 0.00 | 0.00 | 0.00 | 100 | |
| 20260509170031 | 0 | 234 | 1.7 | 3.5 | 0.00 | 0.00 | 0.00 | 100 | |
| 20260509164203 | 0 | 240 | 0.9 | 4.3 | 0.00 | 0.00 | 0.00 | 100 | |
| 20260509162423 | 0 | 244 | 0.9 | 3.5 | 0.00 | 0.00 | 0.00 | 100 | |
| 20260509162336 | 0 | 244 | 0.9 | 3.5 | 0.00 | 0.00 | 0.00 | 100 | |
| 20260509160533 | 0 | 237 | 1.7 | 3.5 | 0.00 | 0.00 | 0.00 | 100 | |
| 20260509154706 | 0 | 241 | 0.9 | 2.6 | 0.00 | 0.00 | 0.00 | 100 | |
| 20260509152918 | 0 | 241 | 1.7 | 3.5 | 0.00 | 0.00 | 0.00 | 100 | |
| 20260509151213 | 0 | 252 | 0.9 | 3.5 | 0.00 | 0.00 | 0.00 | 100 | |
| 20260509145406 | 0 | 288 | 0.9 | 3.5 | 0.00 | 0.00 | 0.00 | 100 |